Home > Weather > Oakland > Past weeks

Flag for USA Past Weather in Oakland, California, USA — Yesterday and Last 2 Weeks

Now
70 °F

Passing clouds.


Feels Like: 75 °F
Forecast: 61 / 70 °F
Wind: 15 mph from Northwest

Location: Metro Oakland International Airport

Current Time: Aug 27, 2016 at 3:38:49 PM

Latest Report: Aug 27, 2016 at 2:53 PM


Visibility: 10 mi

Pressure: 30.00 "Hg

Humidity: 64%

Dew Point: 57 °F

Location of OaklandLocation

Past Weather in Oakland — Graph

°F

Oakland Temperature Yesterday

Maximum temperature yesterday: 73 °F (at 1:53 PM)
Minimum temperature yesterday: 62 °F (at 12:53 AM)
Average temperature yesterday: 66 °F

High & Low Weather Summary for the Past Weeks

 TemperatureHumidityPressure
High73 °F (Aug 13, 12:53 PM)93% (Aug 13, 1:53 AM)30.12 "Hg (Aug 13, 1:53 AM)
Low57 °F (Aug 13, 1:53 AM)55% (Aug 13, 12:53 PM)29.80 "Hg (Aug 17, 4:53 PM)
Average63 °F79%29.94 "Hg
* Reported Aug 12 1:53 PM — Aug 27 1:53 PM, Oakland, Weather by CustomWeather, © 2016

Note: Actual official high and low records may vary slightly from our data, if they occured in-between our weather recording intervals... More about our weather records

Advertising

Oakland Weather History for the Previous 24 Hours

Scroll right to see more
 ConditionsComfort  
Time TempWeatherWind HumidityBarometerVisibility
1:53 PM
Sat, Aug 27
71 °FPassing clouds.13 mph59%30.01 "Hg10 mi
12:53 PM71 °FPartly sunny.7 mph59%30.02 "Hg10 mi
11:53 AM67 °FPartly sunny.No wind66%30.03 "Hg10 mi
10:53 AM65 °FOvercast.3 mph70%30.03 "Hg10 mi
9:53 AM64 °FOvercast.5 mph73%30.01 "Hg10 mi
8:53 AM63 °FOvercast.7 mph75%30.00 "Hg10 mi
7:53 AM63 °FOvercast.8 mph75%29.99 "Hg10 mi
6:53 AM63 °FOvercast.No wind75%29.98 "Hg10 mi
5:53 AM63 °FOvercast.3 mph75%29.97 "Hg10 mi
4:53 AM63 °FOvercast.5 mph75%29.97 "Hg10 mi
3:53 AM64 °FOvercast.12 mph73%29.97 "Hg10 mi
2:53 AM64 °FOvercast.13 mph75%29.97 "Hg10 mi
1:53 AM64 °FOvercast.12 mph75%29.97 "Hg10 mi
12:53 AM64 °FOvercast.10 mph75%29.97 "Hg10 mi
11:53 PM
Fri, Aug 26
64 °FPartly cloudy.6 mph75%29.97 "Hg10 mi
10:53 PM63 °FPassing clouds.9 mph78%29.97 "Hg10 mi
9:53 PM64 °FPassing clouds.10 mph75%29.97 "Hg10 mi
8:53 PM64 °FPassing clouds.13 mph75%29.96 "Hg10 mi
7:53 PM65 °FPassing clouds.14 mph76%29.93 "Hg10 mi
6:53 PM68 °FPassing clouds.16 mph70%29.93 "Hg10 mi
5:53 PM70 °FPassing clouds.14 mph66%29.92 "Hg10 mi
4:53 PM72 °FPassing clouds.12 mph61%29.93 "Hg10 mi
3:53 PM72 °FPassing clouds.8 mph61%29.93 "Hg10 mi
Weather by CustomWeather, © 2016

See weather overviewHow to use our weather pages